Time,TemperatureF,DewpointF,PressureIn,WindDirection,WindDirectionDegrees,WindSpeedMPH,WindSpeedGustMPH,Humidity,HourlyPrecipIn,Conditions,Clouds,dailyrainin,SoftwareType,DateUTC
2013-02-08 12:12:00,28.4,27.9,29.92,West,270,1.6,-999.0,98,-99.99,,,0.00,Acu-Link.com,2013-02-08 17:12:00,
2013-02-08 12:27:00,28.4,27.9,29.91,North,0,1.6,-999.0,98,-99.99,,,0.00,Acu-Link.com,2013-02-08 17:27:00,
2013-02-08 12:42:00,28.4,27.9,29.90,NNE,22,3.6,-999.0,98,-99.99,,,0.00,Acu-Link.com,2013-02-08 17:42:00,
2013-02-08 12:58:00,28.4,27.9,29.89,NW,315,0.0,-999.0,98,-99.99,,,0.00,Acu-Link.com,2013-02-08 17:58:00,
2013-02-08 13:13:00,28.4,27.9,29.87,East,90,3.6,-999.0,98,-99.99,,,0.00,Acu-Link.com,2013-02-08 18:13:00,
2013-02-08 13:43:00,30.2,29.7,29.85,NW,315,1.1,-999.0,98,-99.99,,,0.00,Acu-Link.com,2013-02-08 18:43:00,
2013-02-08 13:58:00,30.2,29.7,29.84,NE,45,1.6,-999.0,98,-99.99,,,0.00,Acu-Link.com,2013-02-08 18:58:00,
2013-02-08 14:14:00,30.2,29.7,29.82,East,90,2.7,-999.0,98,-99.99,,,0.00,Acu-Link.com,2013-02-08 19:14:00,
2013-02-08 14:29:00,30.2,29.7,29.81,NW,315,0.0,-999.0,98,-99.99,,,0.00,Acu-Link.com,2013-02-08 19:29:00,
2013-02-08 14:44:00,30.2,29.7,29.80,East,90,2.0,-999.0,98,-99.99,,,0.00,Acu-Link.com,2013-02-08 19:44:00,
2013-02-08 15:00:00,30.2,29.7,29.80,WNW,292,2.0,-999.0,98,-99.99,,,0.00,Acu-Link.com,2013-02-08 20:00:00,
2013-02-08 15:15:00,30.2,29.7,29.79,West,270,0.0,-999.0,98,-99.99,,,0.00,Acu-Link.com,2013-02-08 20:15:00,
2013-02-08 15:30:00,30.2,29.7,29.77,ESE,112,0.0,-999.0,98,-99.99,,,0.00,Acu-Link.com,2013-02-08 20:30:00,
2013-02-08 15:46:00,28.4,27.9,29.77,WNW,292,1.6,-999.0,98,-99.99,,,0.00,Acu-Link.com,2013-02-08 20:46:00,
2013-02-08 16:01:00,28.4,27.9,29.75,SSE,157,1.6,-999.0,98,-99.99,,,0.00,Acu-Link.com,2013-02-08 21:01:00,
2013-02-08 16:16:00,28.4,27.9,29.75,WNW,292,0.0,-999.0,98,-99.99,,,0.00,Acu-Link.com,2013-02-08 21:16:00,
2013-02-08 16:31:00,28.4,27.9,29.75,West,270,0.0,-999.0,98,-99.99,,,0.00,Acu-Link.com,2013-02-08 21:31:00,
2013-02-08 16:47:00,28.4,27.9,29.74,West,270,0.0,-999.0,98,-99.99,,,0.00,Acu-Link.com,2013-02-08 21:47:00,
2013-02-08 17:02:00,28.4,27.9,29.74,NW,315,0.0,-999.0,98,-99.99,,,0.00,Acu-Link.com,2013-02-08 22:02:00,
2013-02-08 17:17:00,28.4,27.9,29.73,NE,45,1.6,-999.0,98,-99.99,,,0.00,Acu-Link.com,2013-02-08 22:17:00,
2013-02-08 17:32:00,28.4,27.9,29.73,NNE,22,0.0,-999.0,98,-99.99,,,0.00,Acu-Link.com,2013-02-08 22:32:00,
2013-02-08 17:47:00,28.4,27.9,29.73,WNW,292,3.6,-999.0,98,-99.99,,,0.00,Acu-Link.com,2013-02-08 22:47:00,
2013-02-08 18:03:00,28.4,27.9,29.72,NNE,22,2.0,-999.0,98,-99.99,,,0.00,Acu-Link.com,2013-02-08 23:03:00,
2013-02-08 18:18:00,28.4,27.9,29.72,NE,45,2.7,-999.0,98,-99.99,,,0.00,Acu-Link.com,2013-02-08 23:18:00,
2013-02-08 18:33:00,28.4,27.9,29.73,ENE,67,1.6,-999.0,98,-99.99,,,0.00,Acu-Link.com,2013-02-08 23:33:00,
2013-02-08 18:49:00,28.4,27.9,29.72,NNW,337,2.0,-999.0,98,-99.99,,,0.00,Acu-Link.com,2013-02-08 23:49:00,
2013-02-08 19:04:00,28.4,27.9,29.73,ESE,112,2.0,-999.0,98,-99.99,,,0.00,Acu-Link.com,2013-02-09 00:04:00,
2013-02-08 19:19:00,28.4,27.9,29.72,East,90,1.6,-999.0,98,-99.99,,,0.00,Acu-Link.com,2013-02-09 00:19:00,
2013-02-08 19:35:00,28.4,27.9,29.71,NNE,22,2.7,-999.0,98,-99.99,,,0.00,Acu-Link.com,2013-02-09 00:35:00,
2013-02-08 19:50:00,28.4,27.9,29.70,East,90,1.6,-999.0,98,-99.99,,,0.00,Acu-Link.com,2013-02-09 00:50:00,
2013-02-08 20:05:00,28.4,27.9,29.69,West,270,0.0,-999.0,98,-99.99,,,0.00,Acu-Link.com,2013-02-09 01:05:00,
2013-02-08 20:20:00,28.4,27.9,29.69,NE,45,2.0,-999.0,98,-99.99,,,0.00,Acu-Link.com,2013-02-09 01:20:00,
2013-02-08 20:35:00,28.4,27.9,29.70,ENE,67,3.1,-999.0,98,-99.99,,,0.00,Acu-Link.com,2013-02-09 01:35:00,